Regional Weather Roundup
Issued by NWS

Home | Current Version | Previous Version | Graphics & Text | Print | Product List | Glossary On
Versions: 1 2 3 4 5 6 7 8 9 10 11 12 13 14 15 16 17 18 19 20 21 22 23 24 25 26 27 28 29 30 31 32 33 34 35 36 37 38 39 40 41 42 43 44 45 46 47 48 49 50
000
ASUS43 KLMK 201702
RWRKY
KENTUCKY REGIONAL WEATHER ROUNDUP
NATIONAL WEATHER SERVICE LOUISVILLE KY
1200 PM EST MON FEB 20 2017

NOTE "FAIR" INDICATES FEW OR NO CLOUDS BELOW 12,000 FEET
WITH NO SIGNIFICANT WEATHER AND/OR OBSTRUCTIONS TO VISIBILITY.

KYZ001>023-026-027-061>063-070>075-201800-
WESTERN AND SOUTH CENTRAL KENTUCKY

CITY           SKY/WX    TMP DP  RH WIND       PRES   REMARKS
PADUCAH        PTSUNNY   67  52  58 SE8       30.12S
HENDERSON      SUNNY     64  54  68 SE8       30.14S
OWENSBORO      CLOUDY    63  53  70 SE6       30.16F
HOPKINSVILLE   PTSUNNY   65  51  59 SE9       30.15S
BOWLING GREEN  MOSUNNY   65  52  62 E5        30.17F
GLASGOW        NOT AVBL
$$

KYZ024-025-028>034-038-045-046-053-201800-
NORTH CENTRAL KENTUCKY

CITY           SKY/WX    TMP DP  RH WIND       PRES   REMARKS
LOUISVILLE/SDF CLOUDY    57  47  69 VRB3      30.19F
LOUISVILLE/LOU PTSUNNY   60  49  66 CALM      30.20F
FORT KNOX      CLOUDY    52  52 100 E5        30.17F
$$

KYZ035>037-039>044-047>052-055>060-089>105-201800-
NORTHEAST KENTUCKY

CITY           SKY/WX    TMP DP  RH WIND       PRES   REMARKS
LEXINGTON      MOSUNNY   63  47  55 S7        30.21S
COVINGTON      CLOUDY    56  48  74 SE9       30.21F
FRANKFORT      MOSUNNY   58  47  66 CALM      30.19F
$$

KYZ054-064>069-076>088-106>120-201800-
SOUTHEAST KENTUCKY

CITY           SKY/WX    TMP DP  RH WIND       PRES   REMARKS
JACKSON        CLOUDY    62  46  55 VRB3      30.22F
LONDON         MOSUNNY   64  44  48 VRB6      30.21F
SOMERSET       MOSUNNY   63  45  51 E7        30.21F
MIDDLESBORO    SUNNY     53  47  81 CALM      30.23F
MONTICELLO     CLOUDY    64  48  56 E6        30.20F
$$





USA.gov is the U.S. government's official web portal to all federal, state and local government web resources and services.